User: anonymous   Login
Location: Unspecified
(0.0000°N, 0.0000°E)
Time: 10:50:21
(UTC+00:00)
Language:

NOSS 2-3 (D) - Orbit

View from above orbital plane
View from above orbital plane
View from above satellite
View from above satellite

Ground track
Ground track

The orbit data is extracted from the following two-line orbital elements,

1 23862U 96029D   18312.75305487 0.00000000  00000-0  00000-0 0    04
2 23862  63.3680 184.1695 0647000  17.1098 342.8902 13.40848783    00
Epoch (UTC): 08 November 2018 18:04:23
Eccentricity: 0.0647000
inclination: 63.3680°
perigee height: 622 km
apogee height: 1590 km
right ascension of ascending node: 184.1695°
argument of perigee: 17.1098°
revolutions per day: 13.40848783
mean anomaly at epoch: 342.8902°
orbit number at epoch: 0

The dashed part of the orbit path shows where the satellite is in the earth's shadow,  

DLR